Location: Grand Rapids
(42.9630°N, 85.6680°W)
Time: 03:07:37
(UTC-04:00)

S-56A Canister/Altair - Pass Details

Date: 04 June 2024
Orbit: 637 x 2489 km, 38.9° (Epoch: 22 June)

Event Time Altitude Azimuth Distance (km) Brightness Sun altitude
Rises 09:58:48 0° 285° (WNW) 5,914 11.6 40.0°
Reaches altitude 10° 10:03:26 10° 277° (W) 4,696 11.2 40.9°
Maximum altitude 10:13:58 33° 221° (SW) 2,610 10.3 42.8°
Drops below altitude 10° 10:21:40 10° 161° (SSE) 3,389 11.3 44.2°
Sets 10:24:28 0° 151° (SSE) 4,112 11.7 44.7°
